When you browse on this site, cookies collect data to enhance your experience and personalize the content and advertising you see.
Visit our Privacy Policy to learn more. By continuing to use the site, you agree to this use of cookies and data.

Hourly Weather Mauritius

Today, 15 August, Saturday

Time Temperature Precipitation Wind Pressure Humidity
00:00 +18°C° 0 mm 3 mps 725 mmHg 76%
01:00 +18°C° 0 mm 3 mps 725 mmHg 76%
02:00 +18°C° 0 mm 4 mps 725 mmHg 77%
03:00 +18°C° 0 mm 4 mps 725 mmHg 78%
04:00 +18°C° 0 mm 4 mps 725 mmHg 79%
05:00 +17°C° 0 mm 5 mps 725 mmHg 80%
06:00 +17°C° 0 mm 5 mps 725 mmHg 82%
07:00 +17°C° 0 mm 5 mps 725 mmHg 83%
08:00 +19°C° 0.1 mm 5 mps 726 mmHg 78%
09:00 +20°C° 0.1 mm 5 mps 726 mmHg 73%
10:00 +21°C° 0.1 mm 6 mps 727 mmHg 68%
11:00 +21°C° 0 mm 6 mps 726 mmHg 66%
12:00 +22°C° 0 mm 6 mps 726 mmHg 64%
13:00 +22°C° 0 mm 6 mps 725 mmHg 62%
14:00 +22°C° 0 mm 6 mps 725 mmHg 63%
15:00 +22°C° 0 mm 6 mps 725 mmHg 65%
16:00 +21°C° 0 mm 6 mps 725 mmHg 66%
17:00 +21°C° 0.1 mm 6 mps 726 mmHg 71%
18:00 +20°C° 0.1 mm 6 mps 726 mmHg 76%
19:00 +19°C° 0.1 mm 6 mps 726 mmHg 80%
20:00 +19°C° 0.1 mm 6 mps 726 mmHg 81%
21:00 +19°C° 0.1 mm 6 mps 726 mmHg 82%
22:00 +20°C° 0.1 mm 6 mps 727 mmHg 83%
23:00 +19°C° 0.1 mm 6 mps 727 mmHg 81%

Tomorrow, 16 August, Sunday

Time Temperature Precipitation Wind Pressure Humidity
00:00 +19°C° 0.1 mm 6 mps 726 mmHg 80%
01:00 +18°C° 0.1 mm 7 mps 726 mmHg 79%
02:00 +19°C° 0 mm 6 mps 726 mmHg 79%
03:00 +19°C° 0 mm 6 mps 726 mmHg 80%
04:00 +19°C° 0 mm 6 mps 726 mmHg 80%
05:00 +19°C° 0 mm 6 mps 726 mmHg 79%
06:00 +18°C° 0 mm 7 mps 726 mmHg 79%
07:00 +18°C° 0 mm 7 mps 727 mmHg 78%
08:00 +20°C° 0 mm 7 mps 727 mmHg 73%
09:00 +21°C° 0 mm 7 mps 727 mmHg 68%
10:00 +21°C° 0 mm 8 mps 728 mmHg 63%
11:00 +22°C° 0 mm 8 mps 727 mmHg 62%
12:00 +22°C° 0 mm 7 mps 727 mmHg 61%
13:00 +22°C° 0 mm 7 mps 726 mmHg 60%
14:00 +22°C° 0 mm 7 mps 726 mmHg 62%
15:00 +21°C° 0 mm 7 mps 726 mmHg 63%
16:00 +21°C° 0 mm 7 mps 726 mmHg 64%
17:00 +20°C° 0 mm 7 mps 726 mmHg 69%
18:00 +20°C° 0 mm 6 mps 726 mmHg 74%
19:00 +19°C° 0 mm 6 mps 727 mmHg 78%
20:00 +19°C° 0.1 mm 6 mps 727 mmHg 79%
21:00 +18°C° 0.1 mm 7 mps 727 mmHg 79%
22:00 +18°C° 0.1 mm 7 mps 727 mmHg 79%
23:00 +18°C° 0.1 mm 7 mps 727 mmHg 81%

Day after tomorrow, 17 August, Monday

Time Temperature Precipitation Wind Pressure Humidity
00:00 +19°C° 0.1 mm 6 mps 727 mmHg 82%
01:00 +19°C° 0.1 mm 6 mps 726 mmHg 83%
02:00 +19°C° 0.3 mm 6 mps 726 mmHg 83%
03:00 +19°C° 0.3 mm 6 mps 726 mmHg 82%
04:00 +18°C° 0.3 mm 7 mps 726 mmHg 82%
05:00 +18°C° 0.1 mm 7 mps 726 mmHg 80%
06:00 +18°C° 0.1 mm 7 mps 726 mmHg 78%
07:00 +18°C° 0.1 mm 7 mps 726 mmHg 77%
08:00 +20°C° 0 mm 6 mps 727 mmHg 71%
09:00 +21°C° 0 mm 6 mps 727 mmHg 66%
10:00 +22°C° 0 mm 6 mps 727 mmHg 61%
11:00 +22°C° 0 mm 6 mps 727 mmHg 61%
12:00 +22°C° 0 mm 6 mps 726 mmHg 61%
13:00 +22°C° 0 mm 6 mps 726 mmHg 62%
14:00 +22°C° 0 mm 6 mps 726 mmHg 63%
15:00 +22°C° 0 mm 6 mps 726 mmHg 64%
16:00 +21°C° 0 mm 6 mps 725 mmHg 66%
17:00 +21°C° 0 mm 6 mps 726 mmHg 68%
18:00 +20°C° 0 mm 5 mps 726 mmHg 71%
19:00 +20°C° 0 mm 5 mps 726 mmHg 73%
20:00 +19°C° 0.1 mm 5 mps 726 mmHg 76%
21:00 +19°C° 0.1 mm 5 mps 727 mmHg 78%
22:00 +19°C° 0.1 mm 6 mps 727 mmHg 81%
23:00 +19°C° 0.2 mm 6 mps 727 mmHg 81%

18 August, Tuesday

Time Temperature Precipitation Wind Pressure Humidity
00:00 +19°C° 0.2 mm 6 mps 727 mmHg 81%
01:00 +19°C° 0.2 mm 6 mps 727 mmHg 81%
02:00 +19°C° 0.2 mm 6 mps 726 mmHg 81%
03:00 +19°C° 0.2 mm 6 mps 726 mmHg 80%
04:00 +19°C° 0.2 mm 6 mps 726 mmHg 79%
05:00 +19°C° 0 mm 6 mps 726 mmHg 79%
06:00 +19°C° 0 mm 6 mps 726 mmHg 79%
07:00 +17°C° 0 mm 5 mps 726 mmHg 79%
08:00 +19°C° 0 mm 6 mps 727 mmHg 74%
09:00 +20°C° 0 mm 6 mps 727 mmHg 68%
10:00 +21°C° 0 mm 7 mps 727 mmHg 63%
11:00 +22°C° 0 mm 6 mps 727 mmHg 61%
12:00 +22°C° 0 mm 6 mps 727 mmHg 59%
13:00 +22°C° 0 mm 6 mps 726 mmHg 57%
14:00 +22°C° 0 mm 6 mps 726 mmHg 58%
15:00 +22°C° 0 mm 6 mps 726 mmHg 59%
16:00 +22°C° 0 mm 6 mps 725 mmHg 59%
17:00 +21°C° 0 mm 6 mps 726 mmHg 63%
18:00 +21°C° 0 mm 6 mps 726 mmHg 67%
19:00 +20°C° 0 mm 6 mps 726 mmHg 71%
20:00 +20°C° 0 mm 6 mps 726 mmHg 74%
21:00 +19°C° 0 mm 6 mps 726 mmHg 77%
22:00 +19°C° 0 mm 6 mps 726 mmHg 80%
23:00 +19°C° 0.1 mm 6 mps 726 mmHg 81%

19 August, Wednesday

Time Temperature Precipitation Wind Pressure Humidity
00:00 +19°C° 0.1 mm 6 mps 726 mmHg 82%
01:00 +19°C° 0.1 mm 6 mps 726 mmHg 83%
02:00 +19°C° 0.1 mm 6 mps 725 mmHg 83%
03:00 +19°C° 0.1 mm 6 mps 725 mmHg 84%
04:00 +17°C° 0.1 mm 6 mps 725 mmHg 84%
05:00 +19°C° 0.1 mm 6 mps 725 mmHg 84%
06:00 +19°C° 0.1 mm 6 mps 725 mmHg 83%
07:00 +19°C° 0.1 mm 6 mps 726 mmHg 83%
08:00 +20°C° 0 mm 6 mps 726 mmHg 78%
09:00 +21°C° 0 mm 6 mps 726 mmHg 72%
10:00 +22°C° 0 mm 6 mps 726 mmHg 67%
11:00 +22°C° 0 mm 6 mps 726 mmHg 66%
12:00 +22°C° 0 mm 6 mps 726 mmHg 64%
13:00 +23°C° 0 mm 6 mps 725 mmHg 63%
14:00 +23°C° 0 mm 6 mps 725 mmHg 64%
15:00 +22°C° 0 mm 6 mps 725 mmHg 65%
16:00 +22°C° 0 mm 5 mps 724 mmHg 66%
17:00 +21°C° 0 mm 5 mps 725 mmHg 71%
18:00 +21°C° 0 mm 5 mps 725 mmHg 76%
19:00 +20°C° 0 mm 5 mps 725 mmHg 81%
20:00 +20°C° 0.1 mm 4 mps 725 mmHg 81%
21:00 +20°C° 0.1 mm 4 mps 725 mmHg 81%
22:00 +20°C° 0.1 mm 3 mps 725 mmHg 82%
23:00 +20°C° 0.1 mm 4 mps 725 mmHg 82%

20 August, Thursday

Time Temperature Precipitation Wind Pressure Humidity
00:00 +19°C° 0.1 mm 4 mps 725 mmHg 81%
01:00 +19°C° 0.1 mm 4 mps 725 mmHg 81%
02:00 +19°C° 0 mm 4 mps 725 mmHg 83%
03:00 +19°C° 0 mm 4 mps 724 mmHg 84%
04:00 +19°C° 0 mm 4 mps 724 mmHg 85%
05:00 +19°C° 0.1 mm 4 mps 724 mmHg 86%
06:00 +19°C° 0.1 mm 3 mps 725 mmHg 86%
07:00 +18°C° 0.1 mm 3 mps 725 mmHg 86%
08:00 +19°C° 0.3 mm 3 mps 725 mmHg 83%
09:00 +20°C° 0.3 mm 4 mps 725 mmHg 79%
10:00 +21°C° 0.3 mm 4 mps 726 mmHg 76%
11:00 +21°C° 0.4 mm 5 mps 725 mmHg 76%
12:00 +21°C° 0.4 mm 5 mps 725 mmHg 75%
13:00 +21°C° 0.4 mm 5 mps 725 mmHg 75%
14:00 +21°C° 0.1 mm 5 mps 725 mmHg 73%
15:00 +21°C° 0.1 mm 4 mps 725 mmHg 72%
16:00 +22°C° 0.1 mm 4 mps 725 mmHg 71%
17:00 +21°C° 0 mm 4 mps 725 mmHg 74%
18:00 +20°C° 0 mm 4 mps 725 mmHg 76%
19:00 +20°C° 0 mm 4 mps 726 mmHg 79%
20:00 +19°C° 0 mm 4 mps 726 mmHg 80%
21:00 +19°C° 0 mm 4 mps 726 mmHg 80%
22:00 +19°C° 0 mm 4 mps 727 mmHg 81%
23:00 +19°C° 0 mm 4 mps 727 mmHg 81%
Show more